Location: �clusier
(49.9361°N, 2.7869°E)
Time: 06:48:41
(UTC+00:00)

Okean 1-7 Rocket - Visible Passes

Search period start: 26 October 2021 00:00
Search period end: 05 November 2021 00:00
Orbit: 615 x 650 km, 82.5° (Epoch: 25 October)

Date Brightness Start Highest point End Pass type
(mag) Time Alt. Az. Time Alt. Az. Time Alt. Az.
26 Oct 7.0 05:17:50 10° ESE 05:19:26 12° E 05:21:03 10° ENE visible
26 Oct 6.1 18:36:49 10° NW 18:40:20 23° W 18:43:52 10° SW visible
27 Oct 6.5 05:37:21 10° SE 05:40:43 22° E 05:44:05 10° NE visible
27 Oct 3.5 17:19:40 10° N 17:24:08 79° E 17:28:35 10° SSE visible
27 Oct 7.0 18:59:38 10° NW 19:01:38 13° W 19:03:37 10° WSW visible
28 Oct 4.4 17:41:22 10° NNW 17:45:43 55° W 17:50:04 10° S visible
29 Oct 5.8 18:03:20 10° NNW 18:07:10 29° W 18:11:01 10° SSW visible
30 Oct 6.7 05:04:39 10° SE 05:07:33 18° E 05:10:29 10° NE visible
30 Oct 6.8 18:25:47 10° NW 18:28:31 16° W 18:31:15 10° WSW visible
31 Oct 5.6 05:25:01 10° SSE 05:28:54 32° E 05:32:50 10° NNE visible
31 Oct 4.0 17:08:03 10° NNW 17:12:29 69° W 17:16:56 10° S visible
01 Nov 4.2 05:46:04 10° S 05:50:23 62° E 05:54:44 10° NNE visible
01 Nov 5.4 17:29:54 10° NNW 17:34:00 36° W 17:38:05 10° SSW visible
02 Nov 6.9 04:32:07 10° ESE 04:34:26 14° E 04:36:45 10° NE visible
02 Nov 6.5 17:52:07 10° NW 17:55:22 20° W 17:58:37 10° SW visible
03 Nov 5.9 04:52:07 10° SE 04:55:44 26° E 04:59:22 10° NNE visible
03 Nov 7.2 18:15:31 10° WNW 18:16:38 11° W 18:17:44 10° W visible
04 Nov 4.6 05:12:57 10° SSE 05:17:09 48° E 05:21:24 10° NNE visible
04 Nov 4.9 16:56:31 10° NNW 17:00:48 45° W 17:05:05 10° SSW visible
